Погода в Слуцке

Погода в Слуцке : погода сейчас, прогноз погоды и архив. Всё, что Вы хотите узнать о погоде в Слуцке!

Хотите узнать прогноз погоды в Слуцке? Тогда Вам сюда: Погода в Слуцке

Поиск расширенной информации на нашем сайте:

Другие новости

Новости СМИ2

Главная страница сайта

Новости сайта

03.07.2017

Напоминаем, что на нашем специализированном сайте Метеоцентр.Азия вы можете получить высокодетализированные автоматические прогнозы погоды по пунктам России, СНГ и мира в авиационном формате (включающие направление и скорость ветра, видимость, явления погоды, количество и форму облачности, нижнюю и верхнюю границу облачности).


Погода в Слуцке - сегодня

Время (UTC), дата Ветер
(°,м/с) 
Видим.   Явления Облачность Т
(°С)
Тd
(°С)
f(%) Тe
(°С)
Pmin
(гПа)
dP
(гПа)
Po
(мм)
O2
(г/м3)
Тmin Tmax R s Состояние
почвы
15 17.02.18 240 (ЮЗ) 12000 м    9/9 1200 м 
[Sc]
+0.4 -1.6 86 -3  1019.4  -0.5  749  302           
18 17.02.18 260 (З) 10 км    9/0 средняя 
[Ac und]
+0.3 -0.8 92 -3  1019.4  749  302    +1.1    10   
21 17.02.18 300 (СЗ) 13000 м  {снег}  9/9 600 м 
[Sc]
-0.1 -1.6 90 -3  1019.5  0.1  749  302           
00 18.02.18 300 (СЗ) 11000 м  {снег}  9/9 900 м 
[Sc]
-3.9 -6 85 -6  1020.3  0.5  750  307           
03 18.02.18 310 (СЗ) 10 км    9/9 840 м 
[Sc]
-5.2 -6.9 88 -7  1020.6  0.3  750  309      0.3  10   
06 18.02.18 340 (С) 12000 м    9/9 700 м 
[Sc]
-3.2 -5.3 85 -5  1020.9  0.5  750  306  -6    0.3  10  равномерный
сухой снег
100% 
09 18.02.18 310 (СЗ) 14000 м    9/9 870 м 
[Sc]
-2.9 -5.6 82 -6  1021.1  0.2  750  306           
12 18.02.18 320 (СЗ) 18000 м    9/9 750 м 
[Sc]
-2.5 -5.1 82 -6  1021.7  0.6  751  306           
15 18.02.18 330 (СЗ) 7000 м  слаб. снег  9/9 720 м 
[Sc]
-3 -4.7 88 -6  1022.6  0.9  752  307      0.2     
18 18.02.18 350 (С) 8000 м  слаб. снег  9/9 800 м 
[Sc]
-3.6 -5 90 -7  1023.8  0.9  752  308    -2.3  0.5  11   
21 18.02.18 350 (С) 12000 м    9/9 900 м 
[Sc]
-4.4 -6 89 -8  1024.3  0.5  753  309           
00 19.02.18 310 (СЗ) 12000 м    9/9 800 м 
[Sc]
-4.8 -7.6 81 -7  1024.6  0.3  753  310           
03 19.02.18 250 (З) 9000 м  слаб. снег  9/9 600 м 
[Sc]
-5.4 -6.4 93 -8  1023.8  -0.9  752  310      0.3  11   
06 19.02.18 320 (СЗ) 12000 м  {снег}  9/4 600 м средняя 
[Sc|Ac und]
-4.1 -5 93 -7  1023.7  752  308  -6    0.3  11  равномерный
сухой снег
100% 
09 19.02.18 290 (З) 10 км  снег  10/10 500 м 
[Ns]
-3.1 -4.5 90 -7  1023.8  0.3  752  307           
12 19.02.18 310 (СЗ) 10 км  слаб. снег  10/0 средняя 
[As op]
-1.3 -3.2 87 -4  1023.6  -0.1  752  305           
15 19.02.18 360 (С) 17000 м  {снег}  10/10 420 м 
[St]
-1.8 -3 91 -3  1024.1  0.4  753  306      0.3     
18 19.02.18 040 (СВ) 14000 м  {снег}  9/9 540 м 
[Sc]
-2.2 -3.7 89 -3  1024.7  0.6  753  306    -1.2  0.3  11   
21 19.02.18 020 (С) 10 км  слаб. снег  10/10 540 м 
[Ns]
-2.8 -4.1 91 -2  1024.7  753  307           
00 20.02.18 тихо ()   8000 м  слаб. снег  10/10 570 м 
[Ns]
-3.2 -4.2 93 -3  1024.7  753  307           
03 20.02.18 220 (ЮЗ) 10 км  {снег}  9/9 1200 м 
[Sc]
-3.4 -4.8 90 -3  1024.4  -0.4  753  308      0.3  11   
06 20.02.18 тихо ()   8000 м  дымка{снег}  9/9 930 м 
[Sc]
-4.3 -4.9 96 -4  1025.1  0.6  753  309  -4.3    0.3  10  равномерный
сухой снег
100% 
09 20.02.18 030 (СВ) 9000 м  дымка  9/0 средняя 
[Ac und]
-2.3 -3.5 91 -2  1025.2  0.3  753  307           
12 20.02.18 310 (СЗ) 10 км    9/1 600 м средняя 
[Sc|Ac und]
-0.6 -4.4 75 1025  -0.1  753  305           
15 20.02.18 тихо ()   10 км    9/1 600 м средняя 
[Sc|Ac und]
-1.6 -4.5 81 -2  1024.6  -0.5  753  306           
Время (UTC), дата Ветер
(°,м/с) 
Видим.   Явления Облачность Т
(°С)
Тd
(°С)
f(%) Тe
(°С)
Pmin
(гПа)
dP
(гПа)
Po
(мм)
O2
(г/м3)
Тmin Tmax R s Состояние
почвы

Для получения пояснительной информации подведите курсор к названию столбца.

ПОГОДА в Слуцке - архив

Всё, что Вы хотите узнать о погоде в Слуцке - удобно и подробно!

Выберите нужную дату (начиная с 1 января 2015* года) и нажмите кнопку "Найти".
Будут отображены архивные сводки погоды по пункту Слуцк, начиная с указанной даты.


Отображать данные в формате CSV (для использования в таблицах Excel)


Внимание! Наш архив погоды предназначен исключительно для личного некоммерческого использования в познавательных целях. Если Вам необходимы официальные справки о состоянии погоды (для производственных, юридических, коммерческих и т.п. целей), обращайтесь в органы Росгидромета.

*Примечание: данная дата относится к архиву по метеостанциям СССР (Россия, СНГ, Балтия).
Архив по метеостанциям Зарубежной Европы и Азии (кроме Китая) хранится 10 дней, по другим регионам земного шара (Китай, Африка, Америка, Австралия, Океания) - 1 день.

Слуцк - район местоположения метеостанции


Название, широта, долгота, высота метеостанции:
Слуцк 53°ш. 27.6°д. 162 м над ур. моря [Беларусь]

Дополнительная информация

В oтличие oт бoльшинства пoгoдных сайтoв мы публикуем пoдрoбную метеoинфoрмацию в детальнoм прoфессиoнальнoм фoрмате.

Характеристики температуры и влажнoсти вoздуха измеряются на высoте 2 м в тени вдали oт зданий и деревьев.
Скoрoсть ветра измеряется на высoте 10 м (на урoвне рoста челoвека скoрoсть ветра ниже в 1.5-2 раза). Если метеoстанция нахoдится в гoрoде или в лесу, тo скoрoсть ветра занижена на 2-4 м/с пo сравнению с oткрытым местoм. Скoрoсть ветра над акватoриями крупных рек и oзёр, а также на вершинах хoлмoв на 2-5 м/с выше, чем в oбычных услoвиях.
Атмoсфернoе давление в разных тoчках местнoсти мoжет значительнo oтличаться oт давления на метеoстанции, в зависимoсти oт услoвий рельефа (при пoдъёме на 10 м давление пoнижается примернo на 1 мм рт.ст.).